Saint Simons Island, GA

7:15 PM EDT on April 28, 2017 (GMT -0400)
McKinnon

Weather History for KSSI - November, 2012

Change the Weather History Date:

Friday, November 23, 2012

  Actual Average Record
Temperature  
Mean Temperature 56 °F 60 °F  
Max Temperature 71 °F 69 °F 82 °F (1992)
Min Temperature 40 °F 51 °F 30 °F (1956)
Degree Days  
Heating Degree Days 9 6  
Month to date heating degree days 140 99  
Since 1 July heating degree days 169 129  
Cooling Degree Days 0 1  
Month to date cooling degree days 21 46  
Year to date cooling degree days 2908 2607  
Growing Degree Days 6 (Base 50)    
Moisture  
Dew Point 42 °F    
Average Humidity 61    
Maximum Humidity 89    
Minimum Humidity 33    
Precipitation  
Precipitation 0.00 in 0.06 in 1.48 in (2014)
Month to date precipitation 0.21 1.58  
Year to date precipitation 39.34 41.91  
Snow  
Snow 0.00 in - 0.00 in ()
Month to date snowfall 0.0  
Since 1 July snowfall 0.0  
Since 1 September snowfall 0.0  
Snow Depth 0.00 in    
Sea Level Pressure  
Sea Level Pressure 30.13 in    
Wind  
Wind Speed 3 mph (WSW)    
Max Wind Speed 10 mph    
Max Gust Speed 16 mph    
Visibility 10 miles    
Events      
T = Trace of Precipitation, MM = Missing Value Source: NWS Daily Summary

Daily Weather History Graph

Daily Weather History Graph

Search for Another Location

Airport or City:

Trip Planner

Search our weather history database for the weather conditions in past years. The results will help you decide how hot, cold, wet, or windy it might be!

Date:

Astronomy

Nov. 23, 2012 Rise Set
Actual Time 7:00 AM EST 5:24 PM EST
Civil Twilight 6:33 AM EST 5:50 PM EST
Nautical Twilight 6:04 AM EST 6:19 PM EST
Astronomical Twilight 5:35 AM EST 6:48 PM EST
Moon 2:24 PM EST (11/23) 2:32 AM EST (11/23)
Length of Visible Light 11h 16m
Length of Day
10h 24m
Waxing Gibbous, 79% of the Moon is Illuminated
Nov 23
Waxing Gibbous
Nov 28
Full
Dec 6
Last Quarter
Dec 13
New
Dec 20
First Quarter

Hourly Weather History & Observations

Time (EST) Temp. Dew Point Humidity Pressure Visibility Wind Dir Wind Speed Gust Speed Precip Events Conditions
12:53 AM 44.1 °F 37.0 °F 76% 30.18 in 10.0 mi Calm Calm - N/A   Clear
1:53 AM 43.0 °F 37.9 °F 82% 30.18 in 10.0 mi Calm Calm - N/A   Clear
2:53 AM 42.1 °F 37.9 °F 85% 30.17 in 10.0 mi Calm Calm - N/A   Clear
3:53 AM 41.0 °F 37.0 °F 86% 30.17 in 10.0 mi Calm Calm - N/A   Clear
4:53 AM 41.0 °F 37.9 °F 89% 30.18 in 10.0 mi Calm Calm - N/A   Clear
5:53 AM 42.1 °F 39.0 °F 89% 30.17 in 9.0 mi Calm Calm - N/A   Clear
6:53 AM 41.0 °F 37.0 °F 86% 30.19 in 10.0 mi Calm Calm - N/A   Clear
7:53 AM 44.1 °F 39.9 °F 85% 30.20 in 10.0 mi Calm Calm - N/A   Clear
8:53 AM 54.0 °F 41.0 °F 62% 30.21 in 10.0 mi Calm Calm - N/A   Clear
9:53 AM 59.0 °F 37.9 °F 46% 30.21 in 10.0 mi WNW 4.6 mph - N/A   Clear
10:53 AM 62.1 °F 37.9 °F 41% 30.20 in 10.0 mi WSW 5.8 mph - N/A   Clear
11:53 AM 66.0 °F 39.0 °F 37% 30.18 in 10.0 mi West 5.8 mph - N/A   Clear
12:53 PM 68.0 °F 39.0 °F 35% 30.14 in 10.0 mi NW 6.9 mph 16.1 mph N/A   Clear
1:53 PM 70.0 °F 39.9 °F 33% 30.10 in 10.0 mi West 5.8 mph - N/A   Clear
2:53 PM 71.1 °F 41.0 °F 34% 30.08 in 10.0 mi West 10.4 mph - N/A   Clear
3:53 PM 66.0 °F 48.0 °F 52% 30.06 in 10.0 mi SSE 6.9 mph - N/A   Clear
4:53 PM 63.0 °F 52.0 °F 67% 30.06 in 10.0 mi SSE 3.5 mph - N/A   Clear
5:53 PM 59.0 °F 51.1 °F 75% 30.05 in 10.0 mi Calm Calm - N/A   Clear
6:53 PM 57.0 °F 50.0 °F 77% 30.06 in 10.0 mi Calm Calm - N/A   Clear
7:53 PM 57.9 °F 48.0 °F 70% 30.06 in 10.0 mi WSW 4.6 mph - N/A   Clear
8:53 PM 55.9 °F 48.9 °F 77% 30.06 in 10.0 mi SW 5.8 mph - N/A   Clear
9:53 PM 55.9 °F 46.9 °F 72% 30.05 in 10.0 mi WSW 4.6 mph - N/A   Clear
10:53 PM 55.9 °F 46.9 °F 72% 30.04 in 10.0 mi WSW 5.8 mph - N/A   Clear
11:53 PM 55.9 °F 46.9 °F 72% 30.03 in 10.0 mi WSW 6.9 mph - N/A   Clear